User: anonymous   Login
Location: Napier
(39.4830°S, 176.9170°E)
Time: 04:19:41
(UTC+12:00)
Language:

CZ-4C R/B - Orbit

View from above orbital plane
View from above orbital plane
View from above satellite
View from above satellite

Ground track
Ground track

The orbit data is extracted from the following two-line orbital elements,

1 36416U 10009D   19138.22640048 -.00000062  00000-0  22232-4 0  9992
2 36416  63.4293 185.5693 0455985 355.2943   4.3876 13.69548621460242
Epoch (UTC): 18 May 2019 05:26:01
Eccentricity: 0.0455985
inclination: 63.4293°
perigee height: 665 km
apogee height: 1337 km
right ascension of ascending node: 185.5693°
argument of perigee: 355.2943°
revolutions per day: 13.69548621
mean anomaly at epoch: 4.3876°
orbit number at epoch: 46024

The dashed part of the orbit path shows where the satellite is in the earth's shadow,  

DLR